S55G-5 Weather Reports


Display with metric or nautical units.
time (UTC)temp
F
wind
direction
speed
MPH
gust
MPH
rain 1hr
in
rain 24hr
in
rain mn
in
humidity
%
barometer
mb
20260507152703 68 252 1.0 7.0 0.00 0.13 0.00 58 1014.5
20260507151803 70 269 3.0 9.0 0.00 0.13 0.00 53 1014.3
20260507150903 70 261 4.0 9.0 0.00 0.13 0.00 57 1014.0
20260507150003 71 254 3.0 9.0 0.00 0.13 0.00 60 1013.6
20260507145403 72 241 3.0 7.0 0.00 0.13 0.00 58 1013.6
20260507144503 73 234 2.0 7.0 0.00 0.13 0.00 57 1013.5
20260507143818 72 248 3.0 7.0 0.00 0.13 0.00 53 1013.5
20260507142703 73 219 2.0 7.0 0.00 0.13 0.00 57 1013.2
20260507141803 74 257 2.0 9.0 0.00 0.13 0.00 49 1013.3
20260507140903 74 245 4.0 8.0 0.00 0.13 0.00 50 1013.5
20260507140003 74 260 2.0 9.0 0.00 0.13 0.00 49 1013.8
20260507135617 73 274 4.0 9.0 0.00 0.13 0.00 52 1013.3
20260507134503 74 255 3.0 7.0 0.00 0.13 0.00 54 1013.6
20260507133603 74 221 2.0 7.0 0.00 0.13 0.00 53 1013.5
20260507132703 73 177 2.0 11.0 0.00 0.13 0.00 63 1013.7
20260507131803 73 253 2.0 7.0 0.00 0.13 0.00 61 1013.7
20260507130903 73 253 2.0 7.0 0.00 0.13 0.00 61 1013.6
20260507130217 73 236 2.0 6.0 0.00 0.13 0.00 63 1013.7
20260507125403 74 247 2.0 7.0 0.00 0.13 0.00 66 1013.8
20260507124503 73 242 2.0 7.0 0.00 0.13 0.00 63 1013.9
20260507123603 72 223 3.0 6.0 0.00 0.13 0.00 62 1013.8
20260507122705 72 221 2.0 6.0 0.00 0.13 0.00 65 1013.7
20260507121803 72 252 4.0 11.0 0.00 0.13 0.00 62 1013.8
20260507121118 71 252 4.0 8.0 0.00 0.13 0.00 63 1013.8
20260507120003 72 237 4.0 8.0 0.00 0.13 0.00 64 1013.9
20260507115403 73 223 2.0 8.0 0.00 0.13 0.00 65 1013.8
20260507114503 73 226 2.0 6.0 0.00 0.13 0.00 64 1013.8
20260507113603 71 248 3.0 9.0 0.00 0.13 0.00 66 1013.9
20260507112703 70 271 4.0 9.0 0.00 0.13 0.00 66 1013.8
20260507112018 71 264 4.0 7.0 0.00 0.13 0.00 65 1014.2
20260507110903 72 245 3.0 8.0 0.00 0.13 0.00 63 1014.0
20260507110003 72 227 2.0 7.0 0.00 0.13 0.00 66 1014.2
20260507105403 72 245 3.0 11.0 0.00 0.13 0.00 66 1014.2
20260507104503 71 267 6.0 11.0 0.00 0.13 0.00 64 1013.9
20260507103603 71 259 4.0 7.0 0.00 0.13 0.00 67 1014.3
20260507102703 72 237 2.0 7.0 0.00 0.13 0.00 64 1014.2
20260507101803 71 265 4.0 9.0 0.00 0.13 0.00 68 1014.2
20260507100903 70 245 3.0 9.0 0.00 0.13 0.00 68 1014.5
20260507100003 70 251 2.0 8.0 0.00 0.13 0.00 72 1014.1
20260507095403 70 243 2.0 8.0 0.00 0.13 0.00 69 1014.1
20260507094503 70 238 3.0 8.0 0.00 0.13 0.00 71 1014.1
20260507093603 71 251 3.0 7.0 0.00 0.14 0.00 70 1014.1
20260507092703 69 195 2.0 11.0 0.00 0.14 0.00 72 1014.1
20260507091803 69 179 2.0 9.0 0.00 0.19 0.00 70 1014.0
20260507090903 68 194 4.0 14.0 0.00 0.20 0.00 72 1014.0
20260507090218 69 210 4.0 9.0 0.00 0.22 0.00 71 1014.2
20260507085403 69 182 2.0 11.0 0.00 0.24 0.00 72 1013.9
20260507084503 69 244 2.0 11.0 0.00 0.25 0.00 71 1014.0
20260507083603 69 242 2.0 6.0 0.00 0.30 0.00 72 1014.0
20260507082703 69 236 2.0 11.0 0.00 0.34 0.00 71 1013.8
20260507081803 68 230 3.0 8.0 0.00 0.38 0.00 73 1013.8
20260507080903 67 239 1.0 4.0 0.00 0.40 0.00 78 1013.8
20260507080004 66 181 1.0 6.0 0.00 0.44 0.00 79 1013.8
20260507075403 66 202 1.0 6.0 0.00 0.46 0.00 77 1013.9
20260507074503 65 267 2.0 4.0 0.00 0.50 0.00 81 1013.7
20260507073603 64 259 0.0 4.0 0.00 0.51 0.00 85 1013.7
20260507072703 64 177 2.0 6.0 0.00 0.54 0.00 83 1013.6
20260507071803 65 125 2.0 7.0 0.00 0.58 0.00 80 1013.5
20260507070903 64 88 3.0 6.0 0.00 0.61 0.00 82 1013.5
20260507070006 64 96 2.0 6.0 0.00 0.64 0.00 82 1013.4
20260507065403 65 96 2.0 4.0 0.00 0.64 0.00 83 1013.3
20260507064503 64 94 2.0 6.0 0.00 0.69 0.00 83 1013.5
20260507063603 64 116 3.0 7.0 0.00 0.72 0.00 84 1013.2
20260507062703 64 101 2.0 4.0 0.00 0.78 0.00 84 1013.3
20260507061803 63 101 1.0 4.0 0.00 0.79 0.00 85 1013.2
20260507060903 63 107 1.0 2.0 0.00 0.79 0.00 87 1013.3
20260507060217 62 94 1.0 2.0 0.00 0.79 0.00 87 1013.2
20260507055403 62 90 0.0 2.0 0.00 0.79 0.00 88 1013.3
20260507054718 62 89 2.0 2.0 0.00 0.79 0.00 88 1013.2
20260507053603 60 58 0.0 2.0 0.00 0.79 0.00 93 1012.9
20260507052703 59 87 1.0 2.0 0.00 0.81 0.00 95 1012.9
20260507052018 58 86 1.0 2.0 0.00 0.84 0.00 95 1013.1
20260507051117 57 71 0.0 2.0 0.00 0.84 0.00 95 1012.9
20260507050003 57 97 0.0 2.0 0.00 0.84 0.00 95 1012.9
20260507045403 57 84 0.0 2.0 0.00 0.84 0.00 95 1012.8
20260507044503 57 72 1.0 2.0 0.00 0.84 0.00 95 1012.5
20260507043818 57 72 1.0 2.0 0.00 0.84 0.00 95 1012.5
20260507042703 57 94 0.0 2.0 0.00 0.84 0.00 95 1012.5
20260507041803 57 68 2.0 2.0 0.00 0.84 0.00 95 1012.4
20260507040903 57 95 0.0 2.0 0.00 0.84 0.00 95 1012.5
20260507040003 57 319 0.0 2.0 0.00 0.84 0.00 94 1012.3
20260507035403 57 41 1.0 2.0 0.00 0.84 0.00 94 1012.1
20260507034503 57 84 0.0 2.0 0.00 0.84 0.00 93 1012.4
20260507033603 58 85 1.0 2.0 0.00 0.84 0.00 93 1012.2
20260507032703 58 139 2.0 2.0 0.00 0.84 0.00 92 1012.4
20260507031803 59 39 1.0 4.0 0.00 0.84 0.00 91 1012.6
20260507031118 59 50 2.0 4.0 0.00 0.84 0.00 91 1012.5
20260507030004 59 23 1.0 2.0 0.00 0.84 0.00 91 1012.3
20260507025403 59 42 0.0 2.0 0.00 0.84 0.00 90 1012.2
20260507024503 59 80 1.0 4.0 0.00 0.84 0.00 92 1012.3
20260507023603 58 45 0.0 2.0 0.00 0.84 0.00 92 1012.2
20260507022703 59 86 2.0 4.0 0.00 0.84 0.00 91 1012.3
20260507021803 59 105 0.0 2.0 0.00 0.84 0.00 90 1012.4
20260507020903 60 81 1.0 2.0 0.00 0.84 0.00 90 1012.3
20260507020003 60 74 1.0 2.0 0.00 0.84 0.00 89 1012.4
20260507015403 60 85 0.0 2.0 0.00 0.84 0.00 90 1012.5
20260507014718 60 100 2.0 4.0 0.00 0.84 0.00 90 1012.3
20260507013817 60 54 2.0 6.0 0.00 0.84 0.00 90 1012.4
20260507012703 60 71 2.0 4.0 0.00 0.84 0.00 89 1012.2
20260507011803 60 74 2.0 7.0 0.00 0.84 0.00 90 1012.2
20260507010903 59 60 0.0 2.0 0.00 0.84 0.00 91 1012.4
20260507010004 58 7 1.0 2.0 0.00 0.84 0.00 91 1012.3
20260507005403 58 84 1.0 4.0 0.00 0.84 0.00 91 1012.3
20260507004503 58 101 2.0 4.0 0.00 0.84 0.00 90 1012.2
20260507003603 59 70 2.0 4.0 0.00 0.84 0.00 90 1012.5
20260507002703 59 99 0.0 2.0 0.00 0.84 0.00 89 1012.1
20260507001803 59 85 2.0 2.0 0.00 0.84 0.00 89 1012.1
20260507000903 58 55 1.0 2.0 0.00 0.84 0.00 90 1012.3
20260507000003 58 108 1.0 2.0 0.00 0.84 0.00 90 1012.4
20260506235403 59 101 1.0 4.0 0.00 0.84 0.00 89 1012.4
20260506234718 59 94 2.0 4.0 0.00 0.84 0.00 89 1012.4
20260506233817 59 101 2.0 4.0 0.00 0.84 0.00 88 1012.6
20260506232918 59 91 2.0 4.0 0.00 0.84 0.00 89 1012.6
20260506232018 59 89 1.0 4.0 0.00 0.84 0.00 89 1012.8
20260506230903 58 55 1.0 2.0 0.00 0.84 0.00 90 1012.9
20260506230218 59 82 0.0 4.0 0.00 0.84 0.00 89 1012.8
20260506225403 59 116 0.0 4.0 0.00 0.84 0.00 90 1012.8
20260506224503 59 82 2.0 6.0 0.00 0.84 0.00 89 1012.5
20260506223603 59 116 2.0 2.0 0.00 0.84 0.00 89 1012.9
20260506222703 59 90 1.0 4.0 0.00 0.84 0.00 88 1012.7
20260506222017 59 94 2.0 4.0 0.00 0.84 0.00 89 1012.5
20260506220903 59 90 1.0 2.0 0.00 0.84 0.00 90 1012.7
20260506220003 59 37 0.0 2.0 0.00 0.84 0.00 89 1012.7
20260506215403 59 61 0.0 4.0 0.00 0.84 0.84 89 1012.6
20260506214503 59 54 2.0 4.0 0.00 0.84 0.84 89 1012.5
20260506213818 59 9 1.0 4.0 0.00 0.84 0.84 89 1012.5
20260506212703 60 10 1.0 2.0 0.00 0.84 0.84 90 1012.5
20260506212017 59 327 1.0 4.0 0.00 0.84 0.84 90 1012.3
20260506210903 60 38 2.0 4.0 0.00 0.84 0.84 87 1012.3
20260506210003 60 29 0.0 2.0 0.00 0.84 0.84 87 1012.3
20260506205403 60 33 1.0 4.0 0.00 0.84 0.84 88 1012.5
20260506204503 59 70 0.0 4.0 0.00 0.84 0.84 91 1012.3
20260506203603 59 25 1.0 2.0 0.00 0.84 0.84 93 1012.5
20260506202703 59 34 1.0 2.0 0.00 0.84 0.84 93 1012.4
20260506201803 59 352 0.0 4.0 0.00 0.85 0.84 93 1012.3
20260506200903 60 14 0.0 4.0 0.00 0.86 0.84 93 1012.3
20260506200003 60 292 1.0 2.0 0.00 0.86 0.84 92 1012.4
20260506195403 60 289 1.0 2.0 0.00 0.86 0.84 92 1012.4
20260506194718 60 280 0.0 2.0 0.00 0.86 0.84 91 1012.3
20260506193817 60 324 1.0 2.0 0.00 0.86 0.84 91 1011.9
20260506192703 60 313 2.0 4.0 0.00 0.86 0.84 91 1011.9
20260506191803 60 14 0.0 4.0 0.00 0.86 0.84 91 1011.6
20260506190903 60 17 2.0 4.0 0.00 0.86 0.84 91 1011.6
20260506190004 61 90 3.0 8.0 0.00 0.86 0.84 90 1011.4
20260506185403 61 133 3.0 9.0 0.00 0.86 0.84 88 1011.3
20260506184503 61 141 5.0 15.0 0.00 0.86 0.84 89 1011.1
20260506183817 60 158 2.0 13.0 0.00 0.86 0.84 93 1011.0
20260506182703 60 90 2.0 6.0 0.00 0.86 0.84 96 1011.1
20260506181803 60 80 2.0 4.0 0.00 0.86 0.84 96 1011.3
20260506180903 60 99 0.0 2.0 0.00 0.86 0.84 96 1011.2
20260506180004 60 32 1.0 2.0 0.08 0.86 0.84 95 1011.1
20260506175618 60 25 0.0 4.0 0.13 0.86 0.84 95 1011.1
20260506174503 60 37 2.0 4.0 0.13 0.86 0.84 94 1011.2
20260506173603 60 140 1.0 4.0 0.13 0.86 0.84 94 1011.1
20260506172703 61 240 1.0 4.0 0.13 0.86 0.84 94 1011.0
20260506172017 61 256 2.0 7.0 0.13 0.86 0.84 94 1010.9
20260506170903 61 235 2.0 15.0 0.13 0.86 0.84 92 1010.8
20260506170003 63 150 5.0 11.0 0.05 0.78 0.76 87 1010.1
20260506165403 64 134 4.0 11.0 0.00 0.73 0.71 83 1010.1
20260506164717 64 119 4.0 8.0 0.00 0.73 0.71 83 1009.8
20260506163818 65 152 2.0 9.0 0.00 0.73 0.71 82 1010.1
20260506162917 65 191 2.0 9.0 0.00 0.73 0.71 81 1010.4
20260506162017 65 196 2.0 6.0 0.00 0.73 0.71 81 1010.6
20260506161118 65 125 3.0 6.0 0.00 0.73 0.71 81 1010.6
20260506160003 66 127 4.0 8.0 0.00 0.74 0.71 80 1010.7
20260506155403 67 133 4.0 8.0 0.00 0.74 0.71 79 1010.7
20260506154503 67 132 0.0 11.0 0.00 0.74 0.71 80 1010.9
20260506153818 66 114 3.0 11.0 0.00 0.74 0.71 82 1010.6